カタログに戻る

FENGYUN 1C DEB

運用中SSO
NORAD 31552·DEBRIS·🇨🇳 China

打ち上げ May 10, 1999 から Taiyuan Satellite Launch Center

Loading…

次のパス (今後24時間)

TLE

経年Source: Space-Track

元期: Sep 9, 2026, 02:30 UTC

1 31552U 99025BYT 26252.10421689  .00008118  00000-0  19523-2 0  9999
2 31552  98.6255  24.9037 0078417 281.8050  77.4356 14.51730318997920

AllMySatでFENGYUN 1C DEBをリアルタイム追跡

Download on the App Store